Kuchera_Ratio
0.0 0.0 0.0 0.0 0.0 0.0 0.0 0.0 0.0 0.0 0.0 0.0 0.0 0.0 0.0 0.0 0.0 0.0 0.0 0.0 0.0 0.0 0.0 0.0 0.0 0.0 0.0 0.0 0.0 0.0 0.0 0.0
0.0 0.0 0.0 0.0 0.0 0.0 0.0 0.0 0.0 0.0 0.0 0.0 0.0 0.0 0.0 0.0 0.0 0.0 0.0 0.0 0.0 0.0 0.0 0.0 0.0 0.0 0.0 0.0 0.0 0.0 0.0 0.0
0.0 0.0 0.0 0.0 0.0 0.0 0.0 0.0 0.0 0.0 0.0 0.0 0.0 0.0 0.0 0.0 0.0 0.0 0.0 0.0 0.0 0.0 0.0 0.0 0.0 0.0 0.0 0.0 0.0 0.0 0.0 0.0
0.0 0.0 0.0 0.0 0.0 0.0 0.0 0.0 0.0 0.0 0.0 0.0 0.0 0.0 0.0 0.0 0.0 0.0 0.0 0.0 0.0 0.0 0.0 0.0 0.0 0.0 0.0 0.0 0.0 0.0 0.0 0.0
0.0 0.0 0.0 0.0 0.0 0.0 0.0 0.0 0.0 0.0 0.0 0.0 0.0 0.0 0.0 0.0 0.0 0.0 0.0 0.0 0.0 0.0 0.0 0.0 0.0 0.0 0.0 0.0 0.0 0.0 0.0 0.0
0.0 0.0 0.0 0.0 0.0 0.0 0.0 0.0 0.0 0.0 0.0 0.0 0.0 0.0 0.0 0.0 0.0 0.0 0.0 0.0 0.0 0.0 0.0 0.0 0.0 0.0 0.0 0.0 0.0 0.0 0.0 0.0
0.0 0.0 0.0 0.0 0.0 0.0 0.0 0.0 0.0 0.0 0.0 0.0 0.0 0.0 0.0 0.0 0.0 0.0 0.0 0.0 0.0 0.0 0.0 0.0 0.0 0.0 0.0 0.0 0.0 0.0 0.0 0.0
0.0 0.0 0.0 0.0 0.0 0.0 0.0 0.0 0.0 0.0 0.0 0.0 0.0 0.0 0.0 0.0 0.0 0.2 1.3 1.5 1.4 1.0 0.0 0.0 0.0 0.0 0.0 0.0 0.0 0.0 0.0 0.0
0.0 0.0 0.0 0.0 0.0 0.0 0.0 0.0 0.0 0.0 0.0 0.0 0.0 0.0 0.0 0.7 1.6 2.6 3.0 2.6 1.8 0.3 0.7 0.2 0.0 0.0 0.0 0.0 0.0 0.0 0.0 0.0
0.0 0.0 0.0 0.0 0.0 0.0 0.0 0.0 0.0 0.0 0.0 0.0 0.0 0.4 1.6 2.8 3.4 3.6 1.6 2.4 0.0 1.9 1.6 2.3 2.7 3.0 3.6 1.8 1.8 1.4 1.0 1.0
0.0 0.0 0.0 0.0 0.0 0.0 0.0 0.0 0.0 0.0 0.0 0.0 0.0 0.6 0.0 0.0 2.8 2.4 2.0 2.0 1.6 1.1 2.9 2.9 4.7 4.6 5.3 4.7 3.6 3.2 4.2 4.2
0.0 0.0 0.0 0.0 0.0 0.0 0.0 0.0 0.0 0.0 0.0 0.0 1.2 2.0 0.8 0.6 0.4 1.0 3.6 2.7 0.8 2.0 4.6 5.0 7.2 7.0 6.6 7.4 4.6 7.2 8.4 8.6
0.0 0.0 0.0 0.0 0.0 0.0 0.0 0.0 0.0 0.0 0.0 0.8 2.2 2.6 3.8 5.4 4.8 4.6 4.4 6.4 4.2 3.9 6.0 7.0 8.8 8.4 7.8 8.8 7.2 9.0 11.0 12.1
0.0 0.0 0.0 0.0 0.0 0.0 0.0 0.0 0.0 0.1 1.6 3.2 4.2 5.2 6.2 7.2 7.0 6.4 6.2 7.4 7.2 6.0 8.2 10.0 10.2 10.4 9.0 8.0 7.4 10.4 12.1 12.2
0.0 0.0 0.0 0.0 0.0 0.0 0.0 0.0 1.0 1.6 3.4 5.4 7.8 8.6 8.6 8.8 7.8 8.2 8.4 9.0 10.4 9.4 10.4 11.4 10.4 10.2 8.8 9.4 9.8 12.4 13.0 12.8
0.0 0.0 0.0 0.0 0.0 0.0 0.0 1.6 3.6 4.6 8.2 10.3 11.1 10.6 9.8 9.6 10.0 10.2 10.2 10.6 11.4 11.2 11.2 12.3 11.6 9.8 8.4 12.1 12.8 13.6 14.3 14.5
0.0 0.0 0.0 0.0 0.0 1.9 2.6 5.4 6.0 7.2 11.7 12.4 12.8 11.8 12.5 12.8 12.8 12.9 12.2 12.5 13.1 13.5 13.5 13.5 13.6 9.8 8.0 8.2 12.7 14.4 14.6 14.5
0.0 0.0 0.0 2.4 3.7 4.0 5.4 7.2 7.6 11.8 12.7 12.6 13.2 13.1 13.2 13.3 13.4 13.6 14.0 13.9 14.0 14.4 14.4 14.5 14.3 13.4 9.4 9.6 11.2 15.3 15.5 15.2
2.2 4.3 5.3 6.6 6.4 5.8 7.6 8.8 11.8 12.9 13.3 13.3 13.0 13.3 13.4 13.4 13.4 13.4 13.7 14.6 14.8 14.6 14.9 14.7 15.7 14.0 8.8 11.0 12.4 16.0 16.2 15.9